Gesamt
San Ysidro Ranch Airport (Catarina, TX) TS40 Wetter
There is no TAF data available at TS40 or any nearby airports.
There is no METAR data available at TS40. Showing METAR data for KCZT (16 mi NW).
Aktueller METAR-Verlauf CZT (keine Daten für TS40)
| Date | Time (CDT) | Flight Rules | Wind Dir. | Speed | Type | Height AGL (ft) | Visibility | Temp (°C) | Temp (°F) | Dew Point (°C) | Dew Point (°F) | Rel. Humid. | Pressure | Density Altitude | Remarks |
|---|---|---|---|---|---|---|---|---|---|---|---|---|---|---|---|
| 06-Sep | 05:55 | VFR | Calm | 10 miles | 23° | 73° | 23° | 73° | 100% | 29.90 in Hg | 1.578 ft | ||||
| 06-Sep | 05:35 | VFR | Calm | 10 miles | 23° | 73° | 23° | 73° | 100% | 29.90 in Hg | 1.578 ft | ||||
| 06-Sep | 05:15 | VFR | Calm | 10 miles | 23° | 73° | 23° | 73° | 100% | 29.89 in Hg | 1.588 ft | ||||
| 06-Sep | 04:55 | VFR | Calm | 10 miles | 24° | 75° | 23° | 73° | 94% | 29.89 in Hg | 1.708 ft | ||||
| 06-Sep | 04:15 | VFR | 210° | 6 kt | 10 miles | 25° | 77° | 23° | 73° | 89% | 29.88 in Hg | 1.838 ft | |||
| 06-Sep | 03:55 | VFR | 180° | 6 kt | 10 miles | 25° | 77° | 23° | 73° | 89% | 29.89 in Hg | 1.828 ft | |||
| 06-Sep | 03:35 | VFR | 210° | 7 kt | 10 miles | 25° | 77° | 23° | 73° | 89% | 29.88 in Hg | 1.838 ft | |||
| 06-Sep | 03:15 | VFR | 200° | 5 kt | 10 miles | 25° | 77° | 23° | 73° | 89% | 29.88 in Hg | 1.838 ft | |||
| 06-Sep | 02:55 | VFR | Calm | 10 miles | 25° | 77° | 22° | 71° | 83% | 29.87 in Hg | 1.848 ft | ||||
| 06-Sep | 02:35 | VFR | Calm | 10 miles | 25° | 77° | 22° | 71° | 83% | 29.88 in Hg | 1.838 ft | ||||
| 06-Sep | 02:15 | VFR | Calm | 10 miles | 25° | 77° | 22° | 71° | 83% | 29.88 in Hg | 1.838 ft | ||||
| 06-Sep | 01:55 | VFR | 100° | 5 kt | 10 miles | 25° | 77° | 22° | 71° | 83% | 29.89 in Hg | 1.828 ft | |||
| 06-Sep | 01:35 | VFR | Calm | 10 miles |
26° | 78° | 22° | 71° | 79% | 29.89 in Hg | 1.948 ft | ||||
| 06-Sep | 01:15 | VFR | 120° | 3 kt | 7 miles |
26° | 78° | 22° | 71° | 79% | 29.90 in Hg | 1.938 ft | |||
| 06-Sep | 00:55 | VFR | 180° | 4 kt | 10 miles | 26° | 78° | 22° | 71° | 79% | 29.91 in Hg | 1.928 ft | |||
| 06-Sep | 00:35 | VFR | 180° | 4 kt | 10 miles | 26° | 78° | 22° | 71° | 79% | 29.92 in Hg | 1.918 ft | |||
| 06-Sep | 00:15 | VFR | 160° | 5 kt | 10 miles | 27° | 80° | 22° | 71° | 74% | 29.93 in Hg | 2.028 ft | |||
| 05-Sep | 23:55 | VFR | 160° | 5 kt | 10 miles | 28° | 82° | 22° | 71° | 70% | 29.94 in Hg | 2.138 ft | |||
| 05-Sep | 23:15 | VFR | 200° | 8 kt | 10 miles | 28° | 82° | 21° | 69° | 66% | 29.93 in Hg | 2.148 ft | |||
| 05-Sep | 22:55 | VFR | 200° | 6 kt | 10 miles | 29° | 84° | 21° | 69° | 62% | 29.92 in Hg | 2.278 ft | |||
| 05-Sep | 22:35 | VFR | 170° | 9 kt | 10 miles | 30° | 86° | 21° | 69° | 59% | 29.91 in Hg | 2.408 ft | |||
| 05-Sep | 22:15 | VFR | 160° | 11 kt | 10 miles | 31° | 87° | 21° | 69° | 55% | 29.90 in Hg | 2.538 ft | Wind gusting to 17 KT | ||
| 05-Sep | 21:55 | VFR | 160° | 10 kt | 10 miles | 31° | 87° | 21° | 69° | 55% | 29.88 in Hg | 2.558 ft | Wind gusting to 15 KT | ||
| 05-Sep | 21:35 | VFR | 150° | 14 kt | 10 miles | 32° | 89° | 21° | 69° | 52% | 29.86 in Hg | 2.698 ft | Wind gusting to 19 KT |
Anmelden
| Ihr Browser wird nicht unterstützt. aktualisieren Sie Ihren Browser |
